Hourly Weather Alloa

Today, 5 December, Saturday

Time Temperature Precipitation Wind Pressure Humidity
00:00 +3°C° 0 mm 5 mps 733 mmHg 91%
01:00 +3°C° 0.3 mm 5 mps 733 mmHg 91%
02:00 +4°C° 0.3 mm 4 mps 734 mmHg 91%
03:00 +4°C° 0.3 mm 4 mps 734 mmHg 91%
04:00 +3°C° 0.2 mm 4 mps 735 mmHg 91%
05:00 +3°C° 0.2 mm 3 mps 736 mmHg 92%
06:00 +2°C° 0 mm 3 mps 736 mmHg 93%
07:00 +3°C° 0.1 mm 2 mps 737 mmHg 93%
08:00 +3°C° 0.1 mm 2 mps 738 mmHg 92%
09:00 +3°C° 0.1 mm 2 mps 739 mmHg 92%
10:00 +4°C° 0 mm 2 mps 739 mmHg 91%
11:00 +3°C° 0 mm 3 mps 740 mmHg 89%
12:00 +4°C° 0 mm 3 mps 740 mmHg 87%
13:00 +5°C° 0 mm 2 mps 740 mmHg 89%
14:00 +4°C° 0 mm 2 mps 740 mmHg 90%
15:00 +4°C° 0 mm 2 mps 741 mmHg 92%
16:00 +3°C° 0 mm 2 mps 741 mmHg 92%
17:00 +3°C° 0 mm 2 mps 741 mmHg 91%
18:00 +3°C° 0 mm 2 mps 742 mmHg 91%
19:00 +3°C° 0 mm 2 mps 742 mmHg 90%
20:00 +3°C° 0 mm 2 mps 742 mmHg 89%
21:00 +3°C° 0 mm 2 mps 743 mmHg 88%
22:00 +2°C° 0 mm 2 mps 743 mmHg 88%
23:00 +2°C° 0 mm 2 mps 743 mmHg 88%

Tomorrow, 6 December, Sunday

Time Temperature Precipitation Wind Pressure Humidity
00:00 +2°C° 0 mm 2 mps 743 mmHg 88%
01:00 +2°C° 0.1 mm 2 mps 743 mmHg 89%
02:00 +3°C° 0.1 mm 1 mps 743 mmHg 89%
03:00 +3°C° 0.1 mm 1 mps 743 mmHg 90%
04:00 +3°C° 0.1 mm 1 mps 743 mmHg 90%
05:00 +3°C° 0.1 mm 1 mps 744 mmHg 90%
06:00 +3°C° 0.1 mm 1 mps 744 mmHg 90%
07:00 +3°C° 0 mm 1 mps 744 mmHg 90%
08:00 +3°C° 0 mm 1 mps 744 mmHg 90%
09:00 +3°C° 0 mm 1 mps 744 mmHg 90%
10:00 +4°C° 0 mm 1 mps 744 mmHg 88%
11:00 +4°C° 0 mm 1 mps 744 mmHg 86%
12:00 +5°C° 0 mm 1 mps 745 mmHg 85%
13:00 +5°C° 0 mm 1 mps 744 mmHg 86%
14:00 +3°C° 0 mm 0 mps 744 mmHg 87%
15:00 +3°C° 0 mm 0 mps 744 mmHg 88%
16:00 +2°C° 0 mm 0 mps 744 mmHg 89%
17:00 +2°C° 0 mm 0 mps 744 mmHg 89%
18:00 +2°C° 0 mm 1 mps 744 mmHg 89%
19:00 +1°C° 0 mm 0 mps 744 mmHg 89%
20:00 +1°C° 0 mm 0 mps 744 mmHg 89%
21:00 +1°C° 0 mm 0 mps 744 mmHg 89%
22:00 +1°C° 0 mm 0 mps 744 mmHg 89%
23:00 +1°C° 0 mm 0 mps 744 mmHg 89%

Day after tomorrow, 7 December, Monday

Time Temperature Precipitation Wind Pressure Humidity
00:00 +1°C° 0 mm 0 mps 744 mmHg 89%
01:00 +1°C° 0 mm 0 mps 744 mmHg 89%
02:00 +1°C° 0 mm 0 mps 743 mmHg 89%
03:00 +2°C° 0 mm 1 mps 743 mmHg 89%
04:00 +2°C° 0 mm 1 mps 743 mmHg 89%
05:00 +1°C° 0 mm 0 mps 743 mmHg 89%
06:00 +1°C° 0 mm 0 mps 743 mmHg 89%
07:00 +2°C° 0 mm 1 mps 743 mmHg 89%
08:00 +2°C° 0 mm 1 mps 743 mmHg 89%
09:00 +2°C° 0 mm 1 mps 742 mmHg 89%
10:00 +2°C° 0 mm 1 mps 742 mmHg 86%
11:00 +3°C° 0 mm 1 mps 742 mmHg 83%
12:00 +4°C° 0 mm 1 mps 742 mmHg 81%
13:00 +4°C° 0 mm 1 mps 742 mmHg 82%
14:00 +4°C° 0 mm 1 mps 742 mmHg 82%
15:00 +3°C° 0 mm 1 mps 742 mmHg 83%
16:00 +3°C° 0 mm 1 mps 742 mmHg 83%
17:00 +3°C° 0 mm 1 mps 742 mmHg 84%
18:00 +2°C° 0 mm 2 mps 741 mmHg 84%
19:00 +2°C° 0 mm 2 mps 741 mmHg 84%
20:00 +2°C° 0 mm 2 mps 741 mmHg 84%
21:00 +1°C° 0 mm 3 mps 740 mmHg 84%
22:00 +1°C° 0 mm 3 mps 740 mmHg 84%
23:00 +1°C° 0 mm 3 mps 739 mmHg 84%

8 December, Tuesday

Time Temperature Precipitation Wind Pressure Humidity
00:00 +1°C° 0 mm 4 mps 739 mmHg 84%
01:00 +1°C° 0.2 mm 4 mps 738 mmHg 85%
02:00 +1°C° 0.2 mm 5 mps 738 mmHg 86%
03:00 +1°C° 0.2 mm 5 mps 737 mmHg 86%
04:00 +1°C° 0.6 mm 5 mps 737 mmHg 88%
05:00 +1°C° 0.6 mm 4 mps 737 mmHg 90%
06:00 +2°C° 0.6 mm 3 mps 737 mmHg 92%
07:00 +2°C° 0.1 mm 3 mps 737 mmHg 93%
08:00 +2°C° 0.1 mm 3 mps 737 mmHg 93%
09:00 +3°C° 0.1 mm 2 mps 737 mmHg 94%
10:00 +4°C° 0 mm 2 mps 737 mmHg 93%
11:00 +4°C° 0 mm 2 mps 737 mmHg 92%
12:00 +4°C° 0 mm 2 mps 738 mmHg 91%
13:00 +4°C° 0 mm 2 mps 738 mmHg 92%
14:00 +5°C° 0 mm 1 mps 738 mmHg 92%
15:00 +4°C° 0 mm 1 mps 738 mmHg 93%
16:00 +4°C° 0 mm 1 mps 738 mmHg 93%
17:00 +4°C° 0 mm 1 mps 739 mmHg 93%
18:00 +4°C° 0 mm 1 mps 739 mmHg 93%
19:00 +4°C° 0 mm 1 mps 740 mmHg 93%
20:00 +4°C° 0 mm 1 mps 740 mmHg 93%
21:00 +3°C° 0 mm 0 mps 740 mmHg 93%
22:00 +3°C° 0 mm 0 mps 741 mmHg 93%
23:00 +3°C° 0 mm 0 mps 741 mmHg 93%

9 December, Wednesday

Time Temperature Precipitation Wind Pressure Humidity
00:00 +4°C° 0 mm 1 mps 742 mmHg 93%
01:00 +4°C° 0 mm 1 mps 742 mmHg 94%
02:00 +4°C° 0 mm 1 mps 742 mmHg 94%
03:00 +2°C° 0 mm 0 mps 742 mmHg 94%
04:00 +2°C° 0 mm 0 mps 742 mmHg 94%
05:00 +3°C° 0 mm 0 mps 742 mmHg 94%
06:00 +3°C° 0 mm 0 mps 742 mmHg 94%
07:00 +3°C° 0 mm 0 mps 742 mmHg 94%
08:00 +3°C° 0 mm 0 mps 742 mmHg 93%
09:00 +3°C° 0 mm 0 mps 743 mmHg 93%
10:00 +3°C° 0 mm 0 mps 742 mmHg 91%
11:00 +4°C° 0 mm 0 mps 742 mmHg 90%
12:00 +4°C° 0 mm 0 mps 742 mmHg 88%
13:00 +4°C° 0 mm 0 mps 742 mmHg 89%
14:00 +4°C° 0 mm 0 mps 742 mmHg 90%
15:00 +4°C° 0 mm 0 mps 742 mmHg 91%
16:00 +3°C° 0 mm 0 mps 742 mmHg 91%
17:00 +3°C° 0 mm 0 mps 742 mmHg 92%
18:00 +3°C° 0 mm 0 mps 742 mmHg 93%
19:00 +3°C° 0 mm 0 mps 742 mmHg 93%
20:00 +4°C° 0 mm 1 mps 742 mmHg 93%
21:00 +4°C° 0 mm 1 mps 741 mmHg 94%
22:00 +4°C° 0.2 mm 1 mps 741 mmHg 94%
23:00 +4°C° 0.2 mm 1 mps 741 mmHg 95%

10 December, Thursday

Time Temperature Precipitation Wind Pressure Humidity
00:00 +3°C° 0.2 mm 2 mps 740 mmHg 95%
01:00 +3°C° 0.7 mm 2 mps 739 mmHg 95%
02:00 +3°C° 0.7 mm 2 mps 739 mmHg 96%
03:00 +4°C° 0.7 mm 2 mps 738 mmHg 96%
04:00 +3°C° 0.5 mm 3 mps 737 mmHg 95%
05:00 +3°C° 0.5 mm 3 mps 737 mmHg 94%
06:00 +3°C° 0.5 mm 3 mps 736 mmHg 93%
07:00 +4°C° 0.4 mm 3 mps 735 mmHg 93%
08:00 +4°C° 0.4 mm 3 mps 734 mmHg 94%
09:00 +4°C° 0.4 mm 3 mps 732 mmHg 94%
10:00 +4°C° 2.5 mm 3 mps 731 mmHg 94%
11:00 +5°C° 2.5 mm 4 mps 730 mmHg 94%
12:00 +5°C° 2.5 mm 4 mps 728 mmHg 95%
13:00 +5°C° 2.1 mm 4 mps 727 mmHg 95%
14:00 +7°C° 2.1 mm 3 mps 727 mmHg 95%
15:00 +7°C° 2.1 mm 3 mps 726 mmHg 95%
16:00 +7°C° 0.1 mm 3 mps 726 mmHg 95%
17:00 +7°C° 0.1 mm 3 mps 726 mmHg 94%
18:00 +7°C° 0.1 mm 3 mps 726 mmHg 94%
19:00 +5°C° 0 mm 3 mps 726 mmHg 93%
20:00 +5°C° 0 mm 3 mps 727 mmHg 93%
21:00 +5°C° 0 mm 3 mps 727 mmHg 93%
22:00 +4°C° 0 mm 3 mps 727 mmHg 94%
23:00 +5°C° 0 mm 2 mps 727 mmHg 94%
Show more